Showing default

IRIDIUM 150, 43257

Orbit data source: Space-Track

IRIDIUM 150, 43257 is a payload satellite owned by Iridium (US) in LEO that was launched on Fri, 30 Mar 2018 UTC via an FALCON 9 launch vehicle from the Air Force Western Test Range (AFWTR). Payloads include a variety of satellites, spacecraft, and rockets equipped with specific instruments for various scientific and technological missions. These include communications satellites like Starlink; space stations such as the ISS; scientific satellites like the Hubble; Earth observation satellites from companies like Planet Labs, Umbra, and HawkEye 360; GPS; miniature CubeSats for education and research; and military/defense satellites.

Loading next visibility...
IRIDIUM 150 details
Identifier
43257, 2018-030J
Orbit
LEO
Last TLE update9 hours ago
Origin
Flag of USIridium (US)
ManufacturerOATK SSG Gilbert
MissionOperational Commercial Communications
Bus & MotorELITEBUS, Unknown motor
Mass860 kg wet, 700 kg dry
Launch date (UTC)
2018-03-30 (7 years ago)
Launch vehicle
FALCON 9
Launch site
Air Force Western Test Range (AFWTR)
Object type
Payload
Rocket body
Debris
Shape & HBRTrap Box + 2 Pan, 9.4 m
Radar Cross Section14.423 m², Large (>1 m²)

Expand to show TLE details & history

TLE from 9 hours ago
0 IRIDIUM 150
1 43257U 18030J   24361.16309467  .00000040  00000-0  72912-5 0  9995
2 43257  86.3991 155.3773 0001912 100.3765 259.7647 14.34216495353049
Epoch: 2024-12-26T03:54Z
Definitive object data (Epoch: 2024-12-26T03:54:51.379Z)
Latitude0.00004°
Longitude1.51679°
Altitude780.966 km
Speed7.463 km/s
True Right ascension10h 21m 30s
True Declination0° 00' 00"
Sunlit
Object was in partial shadow at TLE epoch
Visualization TLE readout
Latitude-16.7803°
Longitude-177.56329°
Altitude784.565 km
Speed7.461 km/s
Apparent Right ascension23h 18m 25s
Apparent Declination-28° 26' 26"
Sunlit
Object is in daylight
Visualization observer readout
Local Sidereal Time12:33:38
Azimuth59.221° ENE
Elevation-70.736°
Doppler factor1
Orbital elements
Apogee altitude776.003 km
Perigee altitude773.268 km
Semi-major axis7,152.773 km
Eccentricity0.0001912
Inclination86.3991°
RAAN155.3773°
Arg. of periapsis100.3765°
True anomaly259.74314°
Mean anomaly259.7647°
Eccentric anomaly259.75392°
Mean motion3.58783 °/min
BSTAR0.0000072912
Orbital period100.34 mins
Loading maneuver chart data...
Loading historical data...
Loading historical data...
Loading historical data...
Loading historical data...
Loading historical data...
Loading historical data...
Loading historical data...

IRIDIUM 150 Visibility forecast

Observer location: undefined°, undefined

Span
Click to sort rows by Start time (UTC) header in descending order
Start Az.
Max El. time (UTC)
Max El. Az.
Max El.
End time (UTC)
End Az.
4 mins2024-12-26 21:16:00.669Z51.926° ENE2024-12-26 21:18:00.669Z76.273° E13.163°2024-12-26 21:20:00.669Z99.886° ESE
9 mins2024-12-26 22:55:00.669Z349.485° N2024-12-26 22:59:00.669Z271.354° WNW42.476°2024-12-26 23:04:00.669Z189.684° SSW
6 mins2024-12-27 10:12:00.669Z125.441° SE2024-12-27 10:15:00.669Z73.073° E25.134°2024-12-27 10:18:00.669Z31.564° NE
7 mins2024-12-27 11:52:00.669Z228.917° WSW2024-12-27 11:55:00.669Z277.325° WNW26.899°2024-12-27 11:59:00.669Z336.941° NNW
|